Location: Vancouver
(49.2500°N, 123.1330°W)
Time: 14:03:59
(UTC-07:00)

Iridium 21 - Visible Passes

Search period start: 21 April 2015 00:00
Search period end: 01 May 2015 00:00
Orbit: 776 x 779 km, 86.4° (Epoch: 21 April)

Date Brightness Start Highest point End Pass type
(mag) Time Alt. Az. Time Alt. Az. Time Alt. Az.
21 Apr 5.6 00:15:20 69° NE 00:15:20 69° NE 00:20:07 10° N visible
21 Apr 7.5 01:55:47 18° WNW 01:56:19 18° WNW 01:59:43 10° NNW visible
21 Apr 6.1 23:41:42 42° ENE 23:41:42 42° ENE 23:46:23 10° NNE visible
22 Apr 6.9 01:22:09 29° W 01:22:23 29° WNW 01:26:52 10° NNW visible
22 Apr 6.8 23:08:04 26° E 23:08:06 26° E 23:12:24 10° NNE visible
23 Apr 6.1 00:48:32 48° W 00:48:36 48° W 00:53:40 10° N visible
23 Apr 7.3 22:34:26 15° E 22:34:51 15° ENE 22:37:56 10° NE visible
24 Apr 5.4 00:14:53 81° WSW 00:14:58 82° W 00:20:14 10° N visible
24 Apr 7.8 01:55:20 12° W 01:56:43 13° WNW 01:58:58 10° NW visible
24 Apr 5.6 23:41:14 59° ESE 23:41:28 59° E 23:46:36 10° N visible
25 Apr 7.3 01:21:41 20° W 01:22:41 21° WNW 01:26:36 10° NNW visible
25 Apr 6.3 23:07:34 34° E 23:08:03 35° E 23:12:46 10° NNE visible
26 Apr 6.6 00:48:01 33° W 00:48:48 35° WNW 00:53:34 10° NNW visible
26 Apr 7.0 22:33:54 20° E 22:34:44 21° E 22:38:39 10° NNE visible
27 Apr 5.8 00:14:21 54° WSW 00:15:04 59° W 00:20:15 10° N visible
27 Apr 7.5 22:00:13 11° E 22:01:32 12° ENE 22:03:46 10° NE visible
27 Apr 5.4 23:40:40 63° SSE 23:41:30 82° E 23:46:45 10° N visible
28 Apr 7.7 01:21:06 14° W 01:23:02 16° WNW 01:26:06 10° NNW visible
28 Apr 5.9 23:06:58 41° ESE 23:08:01 48° E 23:13:02 10° NNE visible
29 Apr 7.1 00:47:25 22° WSW 00:49:03 26° WNW 00:53:22 10° NNW visible
29 Apr 6.6 22:33:15 25° ESE 22:34:38 28° E 22:39:06 10° NNE visible
30 Apr 6.4 00:13:42 34° WSW 00:15:13 43° W 00:20:12 10° N visible
30 Apr 7.2 21:59:32 14° ESE 22:01:22 17° ENE 22:04:46 10° NE visible
30 Apr 5.6 23:39:59 45° SSW 23:41:34 73° W 23:46:48 10° N visible
